Regional Weather Roundup
Issued by NWS

Home | Current Version | Previous Version | Graphics & Text | Print | Product List | Glossary On
Versions: 1 2 3 4 5 6 7 8 9 10 11 12 13 14 15 16 17 18 19 20 21 22 23 24 25 26 27 28 29 30 31 32 33 34 35 36 37 38 39 40 41 42 43 44 45 46 47 48 49 50
000
ASUS43 KLMK 200402
RWRKY
KENTUCKY REGIONAL WEATHER ROUNDUP
NATIONAL WEATHER SERVICE LOUISVILLE KY
1200 AM EDT SUN APR 20 2014

NOTE "FAIR" INDICATES FEW OR NO CLOUDS BELOW 12,000 FEET
WITH NO SIGNIFICANT WEATHER AND/OR OBSTRUCTIONS TO VISIBILITY.

KYZ001>023-026-027-061>063-070>075-200500-
WESTERN AND SOUTH CENTRAL KENTUCKY

CITY           SKY/WX    TMP DP  RH WIND       PRES   REMARKS
PADUCAH        CLEAR     57  43  59 CALM      30.17S
HENDERSON      PTCLDY    55  43  62 E5        30.19S
OWENSBORO      CLEAR     56  44  64 CALM      30.20S
HOPKINSVILLE   CLEAR     57  39  51 N6        30.18S
BOWLING GREEN  CLEAR     55  37  50 CALM      30.19S
GLASGOW        NOT AVBL
$$

KYZ024-025-028>034-038-045-046-053-200500-
NORTH CENTRAL KENTUCKY

CITY           SKY/WX    TMP DP  RH WIND       PRES   REMARKS
LOUISVILLE/SDF PTCLDY    60  35  39 NE7       30.21S
LOUISVILLE/LOU CLEAR     63  34  33 NE6       30.22S
FORT KNOX      CLEAR     58  34  40 NE5       30.20S
$$

KYZ035>037-039>044-047>052-055>060-089>105-200500-
NORTHEAST KENTUCKY

CITY           SKY/WX    TMP DP  RH WIND       PRES   REMARKS
LEXINGTON      PTCLDY    53  36  52 NE8       30.21F
COVINGTON      PTCLDY    58  34  40 NE7       30.25R
FRANKFORT      CLEAR     57  34  41 N7        30.22R
$$

KYZ054-064>069-076>088-106>120-200500-
SOUTHEAST KENTUCKY

CITY           SKY/WX    TMP DP  RH WIND       PRES   REMARKS
JACKSON        MOCLDY    59  30  33 VRB7      30.21F
LONDON         CLEAR     62  33  33 NE6       30.19S
SOMERSET       NOT AVBL
MIDDLESBORO    NOT AVBL
MONTICELLO     CLEAR     51  40  66 CALM      30.20S
$$




USA.gov is the U.S. government's official web portal to all federal, state and local government web resources and services.